KC2NJV-10 Weather Reports


time (UTC)temp
C
wind
direction
speed
KPH
gust
KPH
rain 1hr
cm
rain 24hr
cm
rain mn
cm
humidity
%
barometer
mb
20260504201835 16 200 32.2 48.3 0.00 0.00 0.00 56 298.5
20260504200334 16 200 32.2 48.3 0.00 0.00 0.00 56 298.5
20260504194835 17 200 32.2 46.7 0.00 0.00 0.00 50 298.7
20260504193334 17 200 32.2 46.7 0.00 0.00 0.00 50 298.7
20260504191843 17 200 32.2 46.7 0.00 0.00 0.00 50 298.7
20260504190333 17 200 32.2 46.7 0.00 0.00 0.00 50 298.7
20260504184834 17 210 27.4 41.8 0.00 0.00 0.00 48 298.8
20260504183335 17 210 27.4 41.8 0.00 0.00 0.00 48 298.8
20260504181833 17 210 27.4 41.8 0.00 0.00 0.00 48 298.8
20260504180334 17 210 27.4 41.8 0.00 0.00 0.00 48 298.8
20260504174835 17 220 27.4 37.0 0.00 0.00 0.00 46 299.0
20260504173333 17 220 27.4 37.0 0.00 0.00 0.00 46 299.0
20260504171835 17 220 27.4 37.0 0.00 0.00 0.00 46 299.0
20260504170333 17 220 27.4 37.0 0.00 0.00 0.00 46 299.0
20260504160335 16 200 22.5 35.4 0.00 0.00 0.00 44 299.2
20260504150735 16 220 27.4 38.6 0.00 0.00 0.00 42 299.3
20260504150334 16 220 27.4 38.6 0.00 0.00 0.00 42 299.3
20260504140334 15 230 22.5 0.0 0.00 0.00 0.00 42 299.4
20260504110333 10 230 11.3 0.0 0.00 0.00 0.00 58 299.6
20260504081833 8 220 8.0 0.0 0.00 0.00 0.00 54 299.3
20260504080334 8 220 8.0 0.0 0.00 0.00 0.00 54 299.3
20260504070333 10 240 11.3 0.0 0.00 0.00 0.00 52 299.1
20260504050334 10 230 11.3 0.0 0.00 0.00 0.00 52 299.1
20260504043333 10 220 8.0 0.0 0.00 0.00 0.00 48 299.0
20260504041834 10 220 8.0 0.0 0.00 0.00 0.00 48 299.0
20260504040333 10 220 8.0 0.0 0.00 0.00 0.00 48 299.0
20260504034834 10 220 8.0 0.0 0.00 0.00 0.00 38 299.0
20260504033334 10 220 8.0 0.0 0.00 0.00 0.00 38 299.0
20260504031832 10 220 8.0 0.0 0.00 0.00 0.00 38 299.0
20260504030333 10 220 8.0 0.0 0.00 0.00 0.00 38 299.0
20260504024833 11 220 9.7 0.0 0.00 0.00 0.00 32 299.0
20260504023333 11 220 9.7 0.0 0.00 0.00 0.00 32 299.0
20260504021835 11 220 9.7 0.0 0.00 0.00 0.00 32 299.0
20260504020333 11 220 9.7 0.0 0.00 0.00 0.00 32 299.0
20260504014835 12 260 4.8 0.0 0.00 0.00 0.00 27 298.8
20260504013334 12 260 4.8 0.0 0.00 0.00 0.00 27 298.8
20260504010335 12 260 4.8 0.0 0.00 0.00 0.00 27 298.8
20260504004833 13 270 11.3 0.0 0.00 0.00 0.00 24 298.5
20260504003434 13 270 11.3 0.0 0.00 0.00 0.00 24 298.5
20260504003333 13 270 11.3 0.0 0.00 0.00 0.00 24 298.5
20260504001834 13 270 11.3 0.0 0.00 0.00 0.00 24 298.5
20260504000406 13 270 11.3 0.0 0.00 0.00 0.00 24 298.5
20260504000333 13 270 11.3 0.0 0.00 0.00 0.00 24 298.5
20260503234833 15 280 16.1 27.4 0.00 0.00 0.00 21 298.4
20260503233335 15 280 16.1 27.4 0.00 0.00 0.00 21 298.4
20260503231836 15 280 16.1 27.4 0.00 0.00 0.00 21 298.4
20260503230332 15 280 16.1 27.4 0.00 0.00 0.00 21 298.4
20260503224833 15 300 19.3 37.0 0.00 0.00 0.00 23 298.3
20260503223333 15 300 19.3 37.0 0.00 0.00 0.00 23 298.3
20260503221833 15 300 19.3 37.0 0.00 0.00 0.00 23 298.3
20260503220335 15 300 19.3 37.0 0.00 0.00 0.00 23 298.3
20260503213333 13 300 19.3 46.7 0.00 0.00 0.00 23 298.2
20260503211835 13 300 19.3 46.7 0.00 0.00 0.00 23 298.2
20260503210500 13 300 19.3 46.7 0.00 0.00 0.00 23 298.2
20260503210333 13 300 19.3 46.7 0.00 0.00 0.00 23 298.2
20260503204839 13 310 32.2 53.1 0.00 0.00 0.00 25 298.3
20260503203334 13 310 32.2 53.1 0.00 0.00 0.00 25 298.3